SCP
0 0 0 0 0 0 0 0 0 0 0 0 0 0 0 0 0 0 0 0 0 0 0 0 0 0 0 0 0 0 0 0 0 0 0 0 0 0 -0 -0 -0 -0 0
0 0 0 0 0 0 0 0 0 0 0 0 0 0 0 0 0 0 0 0 0 0 0 0 0 0 0 0 0 0 0 0 0 0 0 0 0 0 0 0 0 0 0
0 0 0 0 0 0 0 0 0 0 0 0 0 0 0 0 0 0 0 0 0 0 0 0 0 0 0 0 0 0 0 0 0 0 0 0 0 0 0 0 0 0 0
0 0 0 0 0 0 0 0 0 0 0 0 0 0 0 0 0 0 0 0 0 0 0 0 0 0 0 0 0 0 0 0 0 0 0 0 0 0 0 0 0 0 0
0 0 0 0 0 0 0 0 0 0 0 0 0 0 0 0 0 0 0 0 0 0 0 0 0 0 0 0 0 0 0 0 0 0 0 0 0 0 0 0 0 0 0
0 0 0 0 0 0 0 0 0 0 0 0 0 0 0 0 0 0 0 0 0 0 0 0 0 0 0 0 0 0 0 0 0 0 0 0 0 0 0 0 0 0 0
0 0 0 0 0 0 0 0 0 0 0 0 0 0 0 0 0 0 0 0 0 0 0 0 0 0 0 0 0 0 0 0 0 0 0 0 0 0 0 0 0 0 0
0 0 0 0 0 0 0 0 0 0 0 0 0 0 0 0 0 0 0 0 0 0 0 0 0 0 0 0 0 0 0 0 0 0 0 0 0 0 0 0 0 0 0
0 0 0 0 0 0 0 0 0 0 0 0 0 0 0 0 0 0 0 0 0 0 0 0 0 0 0 0 0 0 0 0 0 0 0 0 0 0 0 0 0 0 0
0 0 0 0 0 0 0 0 0 0 0 0 0 0 0 0 0 0 0 0 0 0 0 0 0 0 0 0 0 0 0 0 0 0 0 0 0 0 0 0 0 0 0
0 0 0 0 0 0 0 0 0 0 0 0 0 0 0 0 0 0 0 0 0 0 0 0 0 0 0 0 0 0 0 0 0 0 0 0 0 0 0 0 0 0 0
0 0 0 0 0 0 0 0 0 0 0 0 0 0 0 0 0 0 0 0 0 0 0 0 0 0 0 0 0 0 0 0 0 0 0 0 0 0 0 0 0 0 0
0 0 0 0 0 0 0 0 0 0 0 0 0 0 0 0 0 0 0 0 0 0 0 0 0 0 0 0 0 0 0 0 0 0 0 0 0 0 0 0 0 0 0
0 0 0 0 0 0 0 0 0 0 0 0 0 0 0 0 0 0 0 0 0 0 0 0 0 0 0 0 0 0 0 0 0 0 0 0 0 0 0 0 0 0 0
0 0 0 0 0 0 0 0 0 0 0 0 0 0 0 0 0 0 0 0 0 0 0 0 0 0 0 0 0 0 0 0 0 0 0 0 0 0 0 0 0 0 0
0 0 0 0 0 0 0 0 0 0 0 0 0 0 0 0 0 0 0 0 0 0 0 0 0 0 0 0 0 0 0 0 0 0 0 0 0 0 0 0 0 0 0
0 0 0 0 0 0 0 0 0 0 0 0 0 0 0 0 0 0 0 0 0 0 0 0 0 0 0 0 0 0 0 0 0 0 0 0 0 0 0 0 0 0 0
0 0 0 0 0 0 0 0 0 0 0 0 0 0 0 0 0 0 0 0 0 0 0 0 0 0 0 0 0 0 0 0 0 0 0 0 0 0 0 0 0 0 0
0 0 0 0 0 0 0 0 0 0 0 0 0 0 0 0 0 0 0 0 0 0 0 0 0 0 0 0 0 0 0 0 0 0 0 0 0 0 0 0 0 0 0
0 0 0 0 0 0 0 0 0 0 0 0 0 0 0 0 0 0 0 0 0 0 0 0 0 0 0 0 0 0 0 0 0 0 0 0 0 0 0 0 0 0 0
0 0 0 0 0 0 0 0 0 0 0 0 0 0 0 0 0 0 0 0 0 0 0 0 0 0 0 0 0 0 0 0 0 0 0 0 0 0 0 0 0 0 0
0 0 0 0 0 0 0 0 0 0 0 0 0 0 0 0 0 0 0 0 0 0 0 0 0 0 0 0 0 0 0 0 0 0 0 0 0 0 0 0 0 0 0
0 0 0 0 0 0 0 0 0 0 0 0 0 0 0 0 0 0 0 0 0 0 0 0 0 0 0 0 0 0 0 0 0 0 0 0 0 0 0 0 0 0 0
0 0 0 0 0 0 0 0 0 0 0 0 0 0 0 0 0 0 0 0 0 0 0 0 0 0 0 0 0 0 0 0 0 0 0 0 0 0 0 0 0 0 0
0 0 0 0 0 0 0 0 0 0 0 0 0 0 0 0 0 0 0 0 0 0 0 0 0 0 0 0 0 0 0 0 0 0 0 0 0 0 0 0 0 0 0
0 0 0 0 0 0 0 0 0 0 0 0 0 0 0 0 0 0 0 0 0 0 0 0 0 0 0 0 0 0 0 0 0 0 0 0 0 0 0 0 0 0 0
Wind_Speed_500mb
41 37 35 33 38 43 43 43 40 39 34 34 33 29 29 25 20 24 26 25 27 21 21 19 19 21 24 28 31 34 39 46 60 73 72 76 80 84 83 84 82 81 79
32 30 29 28 32 38 44 45 40 37 28 26 28 29 30 29 26 25 24 19 16 15 15 17 20 25 29 33 36 41 45 49 57 71 77 78 81 81 84 85 84 82 81
33 31 31 31 32 35 41 42 41 38 27 30 29 28 25 24 22 19 16 13 12 13 16 21 25 30 33 36 39 42 45 48 52 60 72 74 77 81 87 87 89 88 88
30 30 31 33 36 38 41 40 41 34 33 32 30 27 25 21 17 14 11 10 13 17 22 27 30 32 34 37 38 42 45 50 54 59 67 74 76 79 82 90 100 93 95
30 31 32 33 36 38 39 40 39 36 33 31 28 26 22 18 15 13 11 12 17 20 24 27 30 33 37 38 39 41 44 48 52 58 65 71 76 84 85 88 91 95 99
35 35 34 35 36 35 36 37 37 35 32 29 27 24 20 17 13 11 12 15 18 22 25 29 33 35 33 33 35 38 41 45 50 55 58 62 70 72 75 78 78 94 89
39 39 37 37 35 37 40 39 36 34 32 30 26 22 17 13 11 12 15 20 24 27 29 28 27 25 26 29 32 34 36 38 43 47 54 58 66 67 71 78 79 78 81
43 41 40 39 41 42 42 39 37 35 33 28 23 18 16 12 11 17 23 27 28 27 24 21 20 21 23 27 33 39 45 49 49 53 52 54 54 62 60 62 70 77 81
48 47 44 44 45 44 42 40 38 35 31 27 22 18 12 13 21 28 29 28 26 23 21 20 19 20 24 32 41 46 49 51 52 56 52 58 59 55 54 57 63 67 80
52 48 46 46 45 44 42 40 37 34 29 24 20 16 17 26 28 29 28 26 25 22 20 21 22 25 30 34 41 48 55 55 58 61 59 61 53 50 48 48 52 60 65
50 49 50 49 47 46 43 40 35 31 27 24 22 22 24 27 27 28 27 26 26 24 21 21 25 29 34 38 44 47 53 60 57 57 61 61 58 57 57 55 51 50 57
50 53 52 51 50 47 42 38 36 32 30 26 25 28 26 25 28 29 27 26 26 23 25 28 31 35 40 44 47 51 55 56 56 58 62 64 63 64 62 57 52 48 49
53 54 53 51 49 47 45 42 39 35 28 27 29 27 28 30 29 29 27 25 24 25 27 32 36 40 44 47 49 51 51 53 58 60 61 64 65 64 62 57 55 50 49
54 55 54 54 53 51 48 46 41 32 30 29 30 32 31 30 30 29 27 26 25 28 30 34 40 44 47 51 50 48 48 49 52 57 60 61 61 60 59 55 57 56 57
53 54 55 54 52 51 49 43 35 33 31 35 33 32 31 32 33 31 30 31 29 31 34 38 41 44 44 43 43 47 47 47 49 50 52 53 55 57 57 54 52 51 48
52 54 54 54 54 51 47 41 37 38 40 37 37 36 34 35 36 34 36 37 33 34 38 42 45 45 47 49 50 50 49 50 49 48 47 48 52 54 55 52 48 47 48
51 53 55 55 52 50 45 41 42 45 43 44 43 41 39 39 37 40 41 40 39 39 42 44 45 46 47 47 49 51 53 51 50 48 47 48 50 50 50 50 48 46 44
52 52 52 52 50 47 46 46 47 48 48 46 45 43 44 43 42 46 44 42 45 43 44 44 45 45 45 45 46 48 48 48 47 47 46 45 46 49 50 47 45 45 45
55 57 57 55 53 54 48 50 51 51 52 50 50 50 50 48 50 51 50 49 48 46 45 44 44 42 42 42 44 45 47 47 47 46 44 42 42 45 44 43 43 40 40
57 58 58 57 59 57 57 55 53 55 55 56 56 53 53 54 55 55 56 53 50 49 47 44 43 41 41 41 41 43 42 43 44 44 43 43 41 41 43 42 40 42 40
57 58 55 61 61 63 59 56 54 54 58 62 58 58 59 61 59 61 58 58 54 52 49 46 41 41 41 41 42 43 43 41 43 44 41 39 40 38 37 39 38 37 38
58 61 63 63 65 64 64 59 54 56 69 69 66 64 64 69 65 60 59 58 58 55 52 50 44 42 43 43 43 44 42 39 39 40 37 34 33 32 34 34 34 34 35
64 69 72 71 73 71 70 68 68 72 76 73 69 69 70 69 67 65 62 58 58 57 53 53 49 44 44 46 46 46 42 36 36 36 35 34 34 34 36 38 39 38 38
67 73 76 79 79 79 80 81 77 77 74 74 72 70 71 69 67 64 61 58 58 55 53 54 53 51 46 46 48 47 44 38 37 37 40 41 42 43 46 47 46 46 46
68 75 79 82 83 81 80 80 79 78 78 75 74 71 67 65 64 62 59 57 57 57 54 55 55 54 53 51 49 48 47 46 46 45 47 49 50 51 52 53 53 53 52
69 71 74 77 80 80 80 81 81 78 76 74 70 68 64 63 62 61 57 55 56 58 59 57 56 57 57 56 54 53 53 53 53 53 54 56 56 55 56 56 55 57 57
Wind_Direction_500mb
237 234 231 224 217 213 213 214 218 226 231 238 242 237 236 237 234 257 254 250 260 269 273 283 294 299 303 307 311 314 315 314 310 312 317 321 325 331 333 334 334 333 332
219 216 214 208 205 204 207 205 212 219 222 224 230 228 234 239 236 236 242 245 252 260 281 294 302 308 313 316 319 321 320 319 316 317 323 330 332 333 331 330 331 333 333
214 210 208 206 202 200 200 201 215 236 226 218 224 224 221 224 219 220 222 237 260 276 291 303 311 315 315 317 319 321 321 322 324 325 326 331 332 332 331 330 331 333 332
210 206 203 203 200 199 201 209 222 228 211 206 208 211 208 205 208 215 227 250 275 298 309 313 313 315 318 320 324 328 332 332 332 331 329 330 331 333 332 332 328 334 332
212 209 203 201 200 199 203 212 212 203 200 197 199 198 199 204 210 223 250 284 301 308 310 310 313 318 323 327 332 333 333 333 332 330 329 331 333 334 335 332 330 329 326
214 213 210 206 203 206 207 204 198 193 191 193 197 199 204 212 230 261 286 297 301 300 306 314 317 319 325 329 331 334 335 335 334 332 331 329 331 332 332 330 325 325 327
214 213 209 208 203 200 200 196 193 192 195 199 203 207 213 225 242 269 288 294 296 304 306 310 313 319 325 330 330 332 335 339 334 331 329 330 328 329 324 322 323 322 320
216 211 208 205 203 201 199 198 197 197 200 204 207 210 220 234 268 295 296 294 299 300 304 305 310 319 323 326 328 337 343 341 336 332 328 327 323 323 320 318 319 319 321
215 212 210 207 207 205 203 202 202 203 204 206 209 214 234 280 289 288 290 296 301 303 300 300 307 313 322 334 334 333 334 336 333 330 326 325 328 331 328 322 324 325 322
217 214 211 209 208 208 207 207 207 207 210 212 215 228 265 284 284 289 293 294 292 291 296 302 311 322 329 331 330 330 331 333 330 329 325 323 327 332 332 330 324 322 322
215 212 211 210 209 209 211 210 211 212 211 215 228 257 274 275 285 289 288 287 288 293 298 306 316 326 328 329 328 330 328 326 323 322 320 321 322 326 330 332 330 325 324
214 213 212 212 211 210 211 213 213 211 215 230 254 266 267 278 281 281 282 285 288 295 307 316 321 324 323 325 326 323 321 320 319 318 316 318 319 320 322 324 324 321 322
216 216 215 213 212 211 212 211 212 215 233 251 261 267 276 273 273 276 278 281 289 299 308 313 317 319 321 321 318 319 321 319 319 319 319 318 317 316 316 318 318 319 318
221 218 216 214 212 210 211 211 214 229 244 250 260 265 267 270 273 275 282 283 286 297 309 313 314 316 317 318 321 319 318 319 320 319 317 315 313 314 317 321 319 321 321
220 219 216 214 213 214 214 214 227 237 244 251 253 257 262 269 269 273 272 275 286 297 305 308 312 311 312 314 316 318 321 321 320 319 316 315 314 316 319 322 320 320 322
224 221 219 218 217 217 217 227 239 247 249 248 251 256 260 262 265 268 272 278 286 295 304 310 312 313 316 319 321 323 324 324 324 321 319 317 317 319 320 323 322 321 323
227 226 221 219 221 221 229 242 259 248 250 251 254 256 256 260 266 269 272 279 286 294 302 307 307 310 314 316 320 322 324 325 324 323 320 319 318 319 321 324 325 324 323
228 226 226 227 227 231 250 252 248 251 254 257 257 259 262 265 266 270 276 279 283 290 296 298 300 305 309 314 317 320 321 320 320 320 320 319 318 319 321 323 324 325 325
230 227 227 228 229 249 248 246 248 251 254 257 260 263 267 268 269 272 274 275 278 282 286 290 294 299 304 308 313 316 318 318 319 320 319 319 318 316 317 319 320 321 322
234 236 238 236 248 253 250 249 251 256 257 259 261 264 265 267 270 275 274 274 276 280 282 284 288 294 298 303 307 311 313 315 315 315 315 314 314 314 314 315 316 318 319
240 241 242 254 262 255 253 253 256 259 265 261 261 260 262 265 267 268 272 275 279 279 279 281 283 287 291 298 303 306 308 311 309 310 312 310 310 312 312 315 318 318 318
246 248 250 258 258 255 255 254 254 268 268 262 259 257 260 264 266 269 270 274 277 278 280 280 281 284 288 293 295 297 299 303 301 303 308 310 312 312 313 316 318 320 321
253 253 254 255 256 256 254 253 256 258 260 259 258 259 260 264 267 269 271 273 274 275 277 279 281 282 285 287 290 291 293 295 293 296 300 303 306 306 305 307 308 309 311
257 258 258 259 257 256 257 260 257 261 259 259 259 260 262 264 266 269 271 272 272 274 276 278 281 282 282 282 283 285 287 287 286 290 293 296 298 299 299 299 299 299 299
263 261 260 259 260 260 261 261 261 262 261 260 261 261 263 265 267 269 269 270 272 274 276 276 279 280 281 280 280 280 281 283 284 285 286 288 291 294 296 296 297 294 293
267 264 263 262 263 262 262 264 264 262 262 263 263 264 265 266 267 268 269 269 271 274 276 276 276 277 279 280 280 279 278 279 280 281 283 285 288 290 292 293 292 291 290
Wind_Speed_850mb
41 37 35 33 38 43 43 43 40 39 34 34 33 29 29 25 20 24 26 25 27 21 21 19 19 21 24 28 31 34 39 46 60 73 72 76 80 84 83 84 82 81 79
32 30 29 28 32 38 44 45 40 37 28 26 28 29 30 29 26 25 24 19 16 15 15 17 20 25 29 33 36 41 45 49 57 71 77 78 81 81 84 85 84 82 81
33 31 31 31 32 35 41 42 41 38 27 30 29 28 25 24 22 19 16 13 12 13 16 21 25 30 33 36 39 42 45 48 52 60 72 74 77 81 87 87 89 88 88
30 30 31 33 36 38 41 40 41 34 33 32 30 27 25 21 17 14 11 10 13 17 22 27 30 32 34 37 38 42 45 50 54 59 67 74 76 79 82 90 100 93 95
30 31 32 33 36 38 39 40 39 36 33 31 28 26 22 18 15 13 11 12 17 20 24 27 30 33 37 38 39 41 44 48 52 58 65 71 76 84 85 88 91 95 99
35 35 34 35 36 35 36 37 37 35 32 29 27 24 20 17 13 11 12 15 18 22 25 29 33 35 33 33 35 38 41 45 50 55 58 62 70 72 75 78 78 94 89
39 39 37 37 35 37 40 39 36 34 32 30 26 22 17 13 11 12 15 20 24 27 29 28 27 25 26 29 32 34 36 38 43 47 54 58 66 67 71 78 79 78 81
43 41 40 39 41 42 42 39 37 35 33 28 23 18 16 12 11 17 23 27 28 27 24 21 20 21 23 27 33 39 45 49 49 53 52 54 54 62 60 62 70 77 81
48 47 44 44 45 44 42 40 38 35 31 27 22 18 12 13 21 28 29 28 26 23 21 20 19 20 24 32 41 46 49 51 52 56 52 58 59 55 54 57 63 67 80
52 48 46 46 45 44 42 40 37 34 29 24 20 16 17 26 28 29 28 26 25 22 20 21 22 25 30 34 41 48 55 55 58 61 59 61 53 50 48 48 52 60 65
50 49 50 49 47 46 43 40 35 31 27 24 22 22 24 27 27 28 27 26 26 24 21 21 25 29 34 38 44 47 53 60 57 57 61 61 58 57 57 55 51 50 57
50 53 52 51 50 47 42 38 36 32 30 26 25 28 26 25 28 29 27 26 26 23 25 28 31 35 40 44 47 51 55 56 56 58 62 64 63 64 62 57 52 48 49
53 54 53 51 49 47 45 42 39 35 28 27 29 27 28 30 29 29 27 25 24 25 27 32 36 40 44 47 49 51 51 53 58 60 61 64 65 64 62 57 55 50 49
54 55 54 54 53 51 48 46 41 32 30 29 30 32 31 30 30 29 27 26 25 28 30 34 40 44 47 51 50 48 48 49 52 57 60 61 61 60 59 55 57 56 57
53 54 55 54 52 51 49 43 35 33 31 35 33 32 31 32 33 31 30 31 29 31 34 38 41 44 44 43 43 47 47 47 49 50 52 53 55 57 57 54 52 51 48
52 54 54 54 54 51 47 41 37 38 40 37 37 36 34 35 36 34 36 37 33 34 38 42 45 45 47 49 50 50 49 50 49 48 47 48 52 54 55 52 48 47 48
51 53 55 55 52 50 45 41 42 45 43 44 43 41 39 39 37 40 41 40 39 39 42 44 45 46 47 47 49 51 53 51 50 48 47 48 50 50 50 50 48 46 44
52 52 52 52 50 47 46 46 47 48 48 46 45 43 44 43 42 46 44 42 45 43 44 44 45 45 45 45 46 48 48 48 47 47 46 45 46 49 50 47 45 45 45
55 57 57 55 53 54 48 50 51 51 52 50 50 50 50 48 50 51 50 49 48 46 45 44 44 42 42 42 44 45 47 47 47 46 44 42 42 45 44 43 43 40 40
57 58 58 57 59 57 57 55 53 55 55 56 56 53 53 54 55 55 56 53 50 49 47 44 43 41 41 41 41 43 42 43 44 44 43 43 41 41 43 42 40 42 40
57 58 55 61 61 63 59 56 54 54 58 62 58 58 59 61 59 61 58 58 54 52 49 46 41 41 41 41 42 43 43 41 43 44 41 39 40 38 37 39 38 37 38
58 61 63 63 65 64 64 59 54 56 69 69 66 64 64 69 65 60 59 58 58 55 52 50 44 42 43 43 43 44 42 39 39 40 37 34 33 32 34 34 34 34 35
64 69 72 71 73 71 70 68 68 72 76 73 69 69 70 69 67 65 62 58 58 57 53 53 49 44 44 46 46 46 42 36 36 36 35 34 34 34 36 38 39 38 38
67 73 76 79 79 79 80 81 77 77 74 74 72 70 71 69 67 64 61 58 58 55 53 54 53 51 46 46 48 47 44 38 37 37 40 41 42 43 46 47 46 46 46
68 75 79 82 83 81 80 80 79 78 78 75 74 71 67 65 64 62 59 57 57 57 54 55 55 54 53 51 49 48 47 46 46 45 47 49 50 51 52 53 53 53 52
69 71 74 77 80 80 80 81 81 78 76 74 70 68 64 63 62 61 57 55 56 58 59 57 56 57 57 56 54 53 53 53 53 53 54 56 56 55 56 56 55 57 57
Wind_Direction_850mb
237 234 231 224 217 213 213 214 218 226 231 238 242 237 236 237 234 257 254 250 260 269 273 283 294 299 303 307 311 314 315 314 310 312 317 321 325 331 333 334 334 333 332
219 216 214 208 205 204 207 205 212 219 222 224 230 228 234 239 236 236 242 245 252 260 281 294 302 308 313 316 319 321 320 319 316 317 323 330 332 333 331 330 331 333 333
214 210 208 206 202 200 200 201 215 236 226 218 224 224 221 224 219 220 222 237 260 276 291 303 311 315 315 317 319 321 321 322 324 325 326 331 332 332 331 330 331 333 332
210 206 203 203 200 199 201 209 222 228 211 206 208 211 208 205 208 215 227 250 275 298 309 313 313 315 318 320 324 328 332 332 332 331 329 330 331 333 332 332 328 334 332
212 209 203 201 200 199 203 212 212 203 200 197 199 198 199 204 210 223 250 284 301 308 310 310 313 318 323 327 332 333 333 333 332 330 329 331 333 334 335 332 330 329 326
214 213 210 206 203 206 207 204 198 193 191 193 197 199 204 212 230 261 286 297 301 300 306 314 317 319 325 329 331 334 335 335 334 332 331 329 331 332 332 330 325 325 327
214 213 209 208 203 200 200 196 193 192 195 199 203 207 213 225 242 269 288 294 296 304 306 310 313 319 325 330 330 332 335 339 334 331 329 330 328 329 324 322 323 322 320
216 211 208 205 203 201 199 198 197 197 200 204 207 210 220 234 268 295 296 294 299 300 304 305 310 319 323 326 328 337 343 341 336 332 328 327 323 323 320 318 319 319 321
215 212 210 207 207 205 203 202 202 203 204 206 209 214 234 280 289 288 290 296 301 303 300 300 307 313 322 334 334 333 334 336 333 330 326 325 328 331 328 322 324 325 322
217 214 211 209 208 208 207 207 207 207 210 212 215 228 265 284 284 289 293 294 292 291 296 302 311 322 329 331 330 330 331 333 330 329 325 323 327 332 332 330 324 322 322
215 212 211 210 209 209 211 210 211 212 211 215 228 257 274 275 285 289 288 287 288 293 298 306 316 326 328 329 328 330 328 326 323 322 320 321 322 326 330 332 330 325 324
214 213 212 212 211 210 211 213 213 211 215 230 254 266 267 278 281 281 282 285 288 295 307 316 321 324 323 325 326 323 321 320 319 318 316 318 319 320 322 324 324 321 322
216 216 215 213 212 211 212 211 212 215 233 251 261 267 276 273 273 276 278 281 289 299 308 313 317 319 321 321 318 319 321 319 319 319 319 318 317 316 316 318 318 319 318
221 218 216 214 212 210 211 211 214 229 244 250 260 265 267 270 273 275 282 283 286 297 309 313 314 316 317 318 321 319 318 319 320 319 317 315 313 314 317 321 319 321 321
220 219 216 214 213 214 214 214 227 237 244 251 253 257 262 269 269 273 272 275 286 297 305 308 312 311 312 314 316 318 321 321 320 319 316 315 314 316 319 322 320 320 322
224 221 219 218 217 217 217 227 239 247 249 248 251 256 260 262 265 268 272 278 286 295 304 310 312 313 316 319 321 323 324 324 324 321 319 317 317 319 320 323 322 321 323
227 226 221 219 221 221 229 242 259 248 250 251 254 256 256 260 266 269 272 279 286 294 302 307 307 310 314 316 320 322 324 325 324 323 320 319 318 319 321 324 325 324 323
228 226 226 227 227 231 250 252 248 251 254 257 257 259 262 265 266 270 276 279 283 290 296 298 300 305 309 314 317 320 321 320 320 320 320 319 318 319 321 323 324 325 325
230 227 227 228 229 249 248 246 248 251 254 257 260 263 267 268 269 272 274 275 278 282 286 290 294 299 304 308 313 316 318 318 319 320 319 319 318 316 317 319 320 321 322
234 236 238 236 248 253 250 249 251 256 257 259 261 264 265 267 270 275 274 274 276 280 282 284 288 294 298 303 307 311 313 315 315 315 315 314 314 314 314 315 316 318 319
240 241 242 254 262 255 253 253 256 259 265 261 261 260 262 265 267 268 272 275 279 279 279 281 283 287 291 298 303 306 308 311 309 310 312 310 310 312 312 315 318 318 318
246 248 250 258 258 255 255 254 254 268 268 262 259 257 260 264 266 269 270 274 277 278 280 280 281 284 288 293 295 297 299 303 301 303 308 310 312 312 313 316 318 320 321
253 253 254 255 256 256 254 253 256 258 260 259 258 259 260 264 267 269 271 273 274 275 277 279 281 282 285 287 290 291 293 295 293 296 300 303 306 306 305 307 308 309 311
257 258 258 259 257 256 257 260 257 261 259 259 259 260 262 264 266 269 271 272 272 274 276 278 281 282 282 282 283 285 287 287 286 290 293 296 298 299 299 299 299 299 299
263 261 260 259 260 260 261 261 261 262 261 260 261 261 263 265 267 269 269 270 272 274 276 276 279 280 281 280 280 280 281 283 284 285 286 288 291 294 296 296 297 294 293
267 264 263 262 263 262 262 264 264 262 262 263 263 264 265 266 267 268 269 269 271 274 276 276 276 277 279 280 280 279 278 279 280 281 283 285 288 290 292 293 292 291 290